FW3855 Weather Reports


time (UTC)temp
F
wind
direction
speed
knots
gust
knots
rain 1hr
in
rain 24hr
in
rain mn
in
humidity
%
barometer
mb
20260905130509 0 0.0 0.0 0.00 0.00 0.00 1019.0
20260905125915 0 0.0 0.0 0.00 0.00 0.00 1018.9
20260905125413 0 0.0 0.0 0.00 0.00 0.00 1018.9
20260905124913 0 0.0 0.0 0.00 0.00 0.00 1018.8
20260905124410 0 0.0 0.0 0.00 0.00 0.00 1018.6
20260905123311 0 0.0 0.0 0.00 0.00 0.00 1018.6
20260905122812 0 0.0 0.0 0.00 0.00 0.00 1018.5
20260905122306 0 0.0 0.0 0.00 0.00 0.00 1018.5
20260905121713 0 212 2.6 5.2 0.00 0.00 0.00 1018.5
20260905121205 72 212 2.6 6.1 0.00 0.00 0.00 14 1018.4
20260905120656 72 212 2.6 10.4 0.00 0.00 0.00 14 1018.4
20260905120150 72 172 2.6 10.4 0.00 0.00 0.00 14 1018.5
20260905115644 73 193 2.6 7.0 0.00 0.00 0.00 14 1018.5
20260905115137 73 169 2.6 7.0 0.00 0.00 0.00 15 1018.5
20260905114631 73 207 2.6 9.6 0.00 0.00 0.00 15 1018.5
20260905114126 73 155 2.6 9.6 0.00 0.00 0.00 15 1018.5
20260905113619 73 156 2.6 7.0 0.00 0.00 0.00 16 1018.5
20260905113113 74 188 2.6 7.8 0.00 0.00 0.00 17 1018.4
20260905112607 74 185 3.5 10.4 0.00 0.00 0.00 16 1018.3
20260905112101 74 159 4.3 10.4 0.00 0.00 0.00 16 1018.4
20260905111556 74 133 3.5 13.0 0.00 0.00 0.00 16 1018.4
20260905111049 74 180 3.5 13.0 0.00 0.00 0.00 16 1018.3
20260905110542 74 136 3.5 8.7 0.00 0.00 0.00 16 1018.2
20260905110037 74 176 4.3 13.0 0.00 0.00 0.00 16 1018.2
20260905105531 74 105 4.3 13.0 0.00 0.00 0.00 16 1018.2
20260905105025 74 174 4.3 9.6 0.00 0.00 0.00 16 1018.2
20260905104519 74 169 3.5 9.6 0.00 0.00 0.00 16 1018.2
20260905104013 74 165 2.6 9.6 0.00 0.00 0.00 16 1018.2
20260905103507 74 128 2.6 8.7 0.00 0.00 0.00 17 1018.2
20260905103001 74 122 2.6 7.8 0.00 0.00 0.00 16 1018.3
20260905102455 74 207 2.6 9.6 0.00 0.00 0.00 15 1018.2
20260905101455 75 172 3.5 10.4 0.00 0.00 0.00 15 1018.3
20260905100958 75 210 3.5 10.4 0.00 0.00 0.00 13 1018.3
20260905100455 75 153 3.5 11.3 0.00 0.00 0.00 13 1018.3
20260905095951 75 152 4.3 11.3 0.00 0.00 0.00 13 1018.3
20260905095451 75 148 4.3 13.0 0.00 0.00 0.00 13 1018.2
20260905094951 75 207 4.3 13.0 0.00 0.00 0.00 13 1018.2
20260905094452 75 82 2.6 9.6 0.00 0.00 0.00 12 1018.3
20260905093448 75 256 3.5 10.4 0.00 0.00 0.00 13 1018.2
20260905092949 75 113 3.5 9.6 0.00 0.00 0.00 12 1018.1
20260905092449 74 140 3.5 9.6 0.00 0.00 0.00 13 1018.1
20260905091945 74 162 1.7 9.6 0.00 0.00 0.00 13 1018.2
20260905091446 74 153 2.6 8.7 0.00 0.00 0.00 11 1018.2
20260905090947 75 125 3.5 10.4 0.00 0.00 0.00 10 1018.1
20260905090446 75 98 3.5 10.4 0.00 0.00 0.00 12 1018.1
20260905085947 75 188 3.5 8.7 0.00 0.00 0.00 12 1018.1
20260905085445 75 195 3.5 10.4 0.00 0.00 0.00 12 1018.1
20260905084939 75 184 2.6 10.4 0.00 0.00 0.00 12 1018.1
20260905084434 75 195 1.7 7.0 0.00 0.00 0.00 11 1018.1
20260905083932 75 210 2.6 7.8 0.00 0.00 0.00 11 1018.1
20260905083431 75 120 4.3 12.2 0.00 0.00 0.00 11 1018.3
20260905082933 75 194 5.2 12.2 0.00 0.00 0.00 10 1018.3
20260905082432 75 153 5.2 12.2 0.00 0.00 0.00 10 1018.3
20260905081433 74 208 3.5 9.6 0.00 0.00 0.00 9 1018.4
20260905080932 74 160 3.5 12.2 0.00 0.00 0.00 9 1018.5
20260905080432 75 179 5.2 12.2 0.00 0.00 0.00 9 1018.4
20260905075933 74 156 4.3 11.3 0.00 0.00 0.00 9 1018.4
20260905075431 74 182 3.5 11.3 0.00 0.00 0.00 9 1018.4
20260905074933 74 190 3.5 9.6 0.00 0.00 0.00 9 1018.5
20260905074427 74 201 2.6 8.7 0.00 0.00 0.00 9 1018.5
20260905073928 74 195 3.5 10.4 0.00 0.00 0.00 9 1018.6
20260905073427 74 173 3.5 10.4 0.00 0.00 0.00 8 1018.5
20260905072927 74 172 1.7 7.8 0.00 0.00 0.00 8 1018.5
20260905072429 74 146 2.6 7.8 0.00 0.00 0.00 8 1018.5
20260905071928 74 214 4.3 10.4 0.00 0.00 0.00 8 1018.5
20260905070929 74 148 2.6 7.8 0.00 0.00 0.00 8 1018.5
20260905070429 74 217 2.6 6.1 0.00 0.00 0.00 8 1018.4
20260905065924 74 158 3.5 7.0 0.00 0.00 0.00 7 1018.4
20260905065424 74 185 3.5 7.0 0.00 0.00 0.00 7 1018.4
20260905064924 74 155 2.6 6.1 0.00 0.00 0.00 8 1018.3
20260905063925 74 151 1.7 7.0 0.00 0.00 0.00 7 1018.2
20260905063425 74 183 1.7 7.0 0.00 0.00 0.00 7 1018.2
20260905061925 75 216 4.3 10.4 0.00 0.00 0.00 6 1018.1
20260905060919 75 139 4.3 9.6 0.00 0.00 0.00 6 1018.0
20260905060421 75 215 4.3 9.6 0.00 0.00 0.00 6 1018.1
20260905055421 76 186 4.3 9.6 0.00 0.00 0.00 6 1018.0
20260905054919 76 226 3.5 9.6 0.00 0.00 0.00 6 1018.0
20260905054418 76 120 4.3 10.4 0.00 0.00 0.00 5 1017.8
20260905053918 76 182 5.2 10.4 0.00 0.00 0.00 5 1018.0
20260905053418 76 128 7.0 13.9 0.00 0.00 0.00 5 1017.8
20260905052918 77 235 7.0 16.5 0.00 0.00 0.00 5 1018.0
20260905052422 77 198 7.8 16.5 0.00 0.00 0.00 5 1017.8
20260905051921 77 219 7.8 16.5 0.00 0.00 0.00 5 1017.8
20260905051411 77 205 7.0 16.5 0.00 0.00 0.00 6 1017.7
20260905050910 77 140 7.0 16.5 0.00 0.00 0.00 5 1017.8
20260905045909 77 136 7.0 16.5 0.00 0.00 0.00 7 1017.7
20260905045408 77 151 7.0 15.6 0.00 0.00 0.00 7 1017.7
20260905044910 77 196 5.2 14.8 0.00 0.00 0.00 8 1017.7
20260905044407 77 252 5.2 14.8 0.00 0.00 0.00 9 1017.6
20260905043906 77 162 6.1 13.9 0.00 0.00 0.00 9 1017.6
20260905043406 77 180 7.0 13.9 0.00 0.00 0.00 10 1017.6
20260905042907 77 197 7.8 19.1 0.00 0.00 0.00 11 1017.6
20260905042407 77 202 7.0 19.1 0.00 0.00 0.00 12 1017.5
20260905041905 77 187 5.2 15.6 0.00 0.00 0.00 13 1017.5
20260905040906 77 198 4.3 10.4 0.00 0.00 0.00 16 1017.4
20260905040414 77 213 3.5 9.6 0.00 0.00 0.00 15 1017.4
20260905035908 77 180 3.5 12.2 0.00 0.00 0.00 15 1017.4
20260905035403 78 250 4.3 12.2 0.00 0.00 0.00 14 1017.3
20260905034900 77 103 3.5 11.3 0.00 0.00 0.00 15 1017.2
20260905033338 78 159 3.5 10.4 0.00 0.00 0.00 15 1017.0
20260905032833 78 60 4.3 12.2 0.00 0.00 0.00 15 1017.0
20260905032327 78 207 4.3 12.2 0.00 0.00 0.00 15 1017.0
20260905031821 78 240 5.2 14.8 0.00 0.00 0.00 15 1016.9
20260905031318 78 176 5.2 14.8 0.00 0.00 0.00 15 1016.8
20260905030809 78 163 4.3 10.4 0.00 0.00 0.00 16 1016.8
20260905025757 78 179 3.5 8.7 0.00 0.00 0.00 17 1016.6
20260905025251 78 225 3.5 10.4 0.00 0.00 0.00 17 1016.7
20260905024744 78 197 3.5 10.4 0.00 0.00 0.00 17 1016.6
20260905024239 79 149 3.5 10.4 0.00 0.00 0.00 17 1016.6
20260905023227 79 171 5.2 10.4 0.00 0.00 0.00 16 1016.6
20260905022721 79 153 4.3 9.6 0.00 0.00 0.00 16 1016.6
20260905021709 80 178 6.1 13.9 0.00 0.00 0.00 16 1016.6
20260905021203 80 199 6.1 13.9 0.00 0.00 0.00 15 1016.6
20260905020658 80 209 6.1 13.9 0.00 0.00 0.00 14 1016.5
20260905020151 80 193 6.1 14.8 0.00 0.00 0.00 14 1016.5
20260905015141 81 150 7.0 20.9 0.00 0.00 0.00 13 1016.6
20260905014633 81 133 6.1 18.2 0.00 0.00 0.00 13 1016.5
20260905014127 81 90 7.0 20.0 0.00 0.00 0.00 12 1016.5
20260905013621 81 195 7.0 20.0 0.00 0.00 0.00 12 1016.6
20260905013115 82 241 4.3 13.9 0.00 0.00 0.00 11 1016.6
20260905012609 82 312 4.3 12.2 0.00 0.00 0.00 11 1016.6
20260905012103 83 171 6.1 16.5 0.00 0.00 0.00 10 1016.6
20260905011557 84 231 7.0 18.2 0.00 0.00 0.00 10 1016.5
20260905011051 84 264 6.1 13.9 0.00 0.00 0.00 10 1016.5
20260905010545 85 248 6.1 15.6 0.00 0.00 0.00 11 1016.4
20260905005532 85 195 4.3 13.9 0.00 0.00 0.00 10 1016.4
20260905005027 85 247 5.2 12.2 0.00 0.00 0.00 11 1016.2
20260905004521 85 218 4.3 12.2 0.00 0.00 0.00 11 1016.2
20260905003509 86 142 4.3 13.0 0.00 0.00 0.00 10 1016.4
20260905003004 86 209 4.3 19.1 0.00 0.00 0.00 10 1016.4
20260905002458 86 141 5.2 19.1 0.00 0.00 0.00 10 1016.4
20260905000939 86 149 6.1 20.0 0.00 0.00 0.00 8 1016.4
20260905000433 86 139 7.8 20.0 0.00 0.00 0.00 10 1016.2
20260904235927 86 223 8.7 18.2 0.00 0.00 0.00 10 1016.4
20260904235422 86 203 6.1 18.2 0.00 0.00 0.00 11 1016.4
20260904234915 87 203 5.2 11.3 0.00 0.00 0.00 12 1016.4
20260904233904 87 72 4.3 11.3 0.00 0.00 0.00 13 1016.1
20260904233357 87 228 4.3 12.2 0.00 0.00 0.00 14 1016.1
20260904232852 87 237 5.2 12.2 0.00 0.00 0.00 16 1016.1
20260904232346 87 167 6.1 20.9 0.00 0.00 0.00 15 1016.4
20260904231839 87 131 6.1 20.9 0.00 0.00 0.00 14 1016.5
20260904231334 87 192 4.3 10.4 0.00 0.00 0.00 13 1016.4
20260904230827 87 240 4.3 13.9 0.00 0.00 0.00 14 1016.2
20260904230321 87 82 5.2 13.9 0.00 0.00 0.00 14 1016.4
20260904225815 87 210 7.0 14.8 0.00 0.00 0.00 15 1016.5
20260904225309 87 204 7.8 18.2 0.00 0.00 0.00 14 1016.5
20260904224809 87 176 7.8 18.2 0.00 0.00 0.00 12 1016.6
20260904224308 87 203 7.0 20.9 0.00 0.00 0.00 12 1016.6
20260904223809 87 286 6.1 20.9 0.00 0.00 0.00 11 1016.5
20260904223311 87 212 6.1 17.4 0.00 0.00 0.00 11 1016.5
20260904222306 87 127 5.2 11.3 0.00 0.00 0.00 12 1016.5
20260904221806 88 319 4.3 13.9 0.00 0.00 0.00 13 1016.6
20260904221304 87 187 5.2 15.6 0.00 0.00 0.00 13 1016.7
20260904220805 86 167 7.0 16.5 0.00 0.00 0.00 17 1016.7
20260904220305 86 149 7.0 22.6 0.00 0.00 0.00 17 1016.6
20260904215803 85 203 7.0 22.6 0.00 0.00 0.00 17 1016.5
20260904215305 86 188 7.0 15.6 0.00 0.00 0.00 16 1016.7
20260904214802 86 202 7.8 19.1 0.00 0.00 0.00 16 1016.8
20260904214300 86 179 7.0 19.1 0.00 0.00 0.00 15 1016.8
20260904213805 86 173 7.0 16.5 0.00 0.00 0.00 14 1016.8
20260904213300 86 68 5.2 16.5 0.00 0.00 0.00 15 1016.8
20260904212752 87 181 6.1 19.1 0.00 0.00 0.00 15 1016.8
20260904212253 86 185 7.0 19.1 0.00 0.00 0.00 16 1016.8
20260904211752 86 115 6.1 12.2 0.00 0.00 0.00 16 1016.8
20260904211251 86 193 7.8 19.1 0.00 0.00 0.00 16 1016.9
20260904210750 86 148 7.8 19.1 0.00 0.00 0.00 16 1017.0
20260904210252 86 196 6.1 17.4 0.00 0.00 0.00 15 1017.2
20260904205753 86 276 5.2 17.4 0.00 0.00 0.00 17 1017.2
20260904204751 86 207 6.1 16.5 0.00 0.00 0.00 17 1016.9
20260904202751 86 165 5.2 17.4 0.00 0.00 0.00 18 1017.5
20260904202251 86 184 4.3 15.6 0.00 0.00 0.00 18 1017.4
20260904201252 85 74 6.1 25.2 0.00 0.00 0.00 19 1017.4
20260904200754 85 241 5.2 15.6 0.00 0.00 0.00 22 1017.4
20260904194752 84 179 6.1 26.1 0.00 0.00 0.00 25 1017.6
20260904193752 84 104 4.3 13.0 0.00 0.00 0.00 26 1017.6
20260904193251 84 217 6.1 18.2 0.00 0.00 0.00 28 1017.7
20260904192750 83 98 7.0 20.9 0.00 0.00 0.00 28 1017.7
20260904192252 83 210 7.0 20.9 0.00 0.00 0.00 27 1017.7
20260904191253 83 151 6.1 18.2 0.00 0.00 0.00 28 1018.0
20260904190748 82 281 5.2 15.6 0.00 0.00 0.00 28 1017.8
20260904190247 83 352 6.1 14.8 0.00 0.00 0.00 30 1018.0
20260904185748 82 149 7.8 20.9 0.00 0.00 0.00 30 1018.0
20260904185247 82 139 7.0 20.9 0.00 0.00 0.00 32 1018.2
20260904184745 81 195 6.1 20.9 0.00 0.00 0.00 33 1018.1
20260904184245 82 214 6.1 14.8 0.00 0.00 0.00 33 1018.2
20260904183745 82 103 7.0 14.8 0.00 0.00 0.00 30 1018.2
20260904183245 81 96 7.8 18.2 0.00 0.00 0.00 32 1018.2
20260904182744 81 194 6.1 18.2 0.00 0.00 0.00 31 1018.2
20260904182241 82 102 5.2 16.5 0.00 0.00 0.00 31 1018.3
20260904181240 80 195 7.0 19.1 0.00 0.00 0.00 33 1018.2
20260904180738 80 141 7.8 19.1 0.00 0.00 0.00 34 1018.3
20260904180237 80 63 6.1 16.5 0.00 0.00 0.00 33 1018.3
20260904175236 80 187 4.3 10.4 0.00 0.00 0.00 34 1018.3
20260904174738 80 191 5.2 17.4 0.00 0.00 0.00 34 1018.3
20260904174236 79 83 5.2 17.4 0.00 0.00 0.00 36 1018.3
20260904173738 79 142 4.3 15.6 0.00 0.00 0.00 36 1018.4
20260904173235 79 158 6.1 19.1 0.00 0.00 0.00 37 1018.4
20260904172234 78 123 7.8 25.2 0.00 0.00 0.00 37 1018.4
20260904171734 78 123 7.8 25.2 0.00 0.00 0.00 37 1018.4
20260904170735 77 103 7.8 20.0 0.00 0.00 0.00 40 1018.3
20260904170229 77 153 7.0 20.0 0.00 0.00 0.00 39 1018.2
20260904165723 77 169 7.0 15.6 0.00 0.00 0.00 39 1018.1
20260904165217 77 131 5.2 16.5 0.00 0.00 0.00 39 1018.1
20260904164711 77 232 5.2 19.1 0.00 0.00 0.00 40 1018.2
20260904164205 77 79 5.2 19.1 0.00 0.00 0.00 40 1018.1
20260904163700 77 233 6.1 16.5 0.00 0.00 0.00 40 1018.1
20260904163153 76 141 6.1 19.1 0.00 0.00 0.00 40 1018.1
20260904162648 77 165 5.2 19.1 0.00 0.00 0.00 39 1018.2
20260904162140 76 255 6.1 15.6 0.00 0.00 0.00 38 1018.0
20260904161635 76 101 5.2 15.6 0.00 0.00 0.00 39 1018.1
20260904161129 76 119 5.2 15.6 0.00 0.00 0.00 40 1018.1
20260904160623 75 266 6.1 15.6 0.00 0.00 0.00 41 1018.1
20260904160118 75 148 6.1 15.6 0.00 0.00 0.00 41 1017.8
20260904155611 75 125 7.0 15.6 0.00 0.00 0.00 41 1018.0
20260904155105 75 169 7.0 19.1 0.00 0.00 0.00 40 1017.8
20260904154559 75 183 5.2 19.1 0.00 0.00 0.00 39 1017.8
20260904154054 75 195 5.2 17.4 0.00 0.00 0.00 37 1017.8
20260904153041 74 160 5.2 13.9 0.00 0.00 0.00 36 1017.7
20260904152535 74 98 5.2 13.0 0.00 0.00 0.00 35 1017.7
20260904152030 74 148 4.3 13.9 0.00 0.00 0.00 34 1017.7
20260904151523 74 139 4.3 13.9 0.00 0.00 0.00 32 1017.7
20260904151016 74 121 5.2 21.7 0.00 0.00 0.00 31 1017.7
20260904150511 74 181 5.2 21.7 0.00 0.00 0.00 30 1017.6
20260904150005 74 181 3.5 14.8 0.00 0.00 0.00 29 1017.6
20260904145459 74 191 2.6 14.8 0.00 0.00 0.00 28 1017.6
20260904144953 74 224 2.6 12.2 0.00 0.00 0.00 27 1017.5
20260904144447 73 77 3.5 12.2 0.00 0.00 0.00 26 1017.5
20260904143941 73 262 3.5 8.7 0.00 0.00 0.00 24 1017.5
20260904143435 73 167 2.6 8.7 0.00 0.00 0.00 24 1017.4
20260904142929 73 268 1.7 8.7 0.00 0.00 0.00 21 1017.4
20260904142429 73 325 1.7 8.7 0.00 0.00 0.00 21 1017.4
20260904141926 72 231 2.6 9.6 0.00 0.00 0.00 18 1017.3
20260904141425 72 215 1.7 9.6 0.00 0.00 0.00 19 1017.4
20260904140923 72 300 1.7 9.6 0.00 0.00 0.00 18 1017.3
20260904135920 71 252 2.6 10.4 0.00 0.00 0.00 19 1017.0
20260904134913 0 0.0 0.0 0.00 0.00 0.00 1016.7
20260904134412 0 0.0 0.0 0.00 0.00 0.00 1016.8
20260904133909 0 0.0 0.0 0.00 0.00 0.00 1016.7
20260904133320 0 0.0 0.0 0.00 0.00 0.00 1016.7
20260904132819 0 0.0 0.0 0.00 0.00 0.00 1016.7
20260904132212 0 0.0 0.0 0.00 0.00 0.00 1016.7
20260904131209 0 0.0 0.0 0.00 0.00 0.00 1016.6
20260904130710 0 0.0 0.0 0.00 0.00 0.00 1016.6